Wind_Speed
17 18 18 19 19 19 19 18 21 21 21 21 21 22 22 23 24 24 25 26 26 28 31 34 37 40 42 44 46 48 49 49 52 53 55 56 57 57 58 57 57 59 61 60
16 18 19 19 20 20 20 21 23 22 23 24 24 24 23 21 23 24 25 26 29 32 35 38 40 42 44 46 48 48 50 54 55 56 56 58 60 61 61 61 60 60 61 60
17 20 20 19 19 20 21 21 23 23 23 25 28 27 24 22 24 26 28 30 31 34 38 40 42 44 46 49 49 51 54 55 56 58 60 62 64 64 64 64 64 64 63 62
18 20 20 19 20 18 20 21 23 25 26 21 27 23 28 23 26 28 30 32 35 38 41 44 46 48 49 50 52 54 55 56 58 60 62 63 64 65 67 68 68 66 66 64
20 19 20 20 21 21 25 24 26 27 27 28 28 25 31 25 28 29 32 35 39 43 45 46 47 48 50 52 54 55 56 58 60 61 62 63 65 67 69 70 70 71 72 70
18 20 20 21 20 20 22 23 24 25 26 26 25 27 23 29 29 33 36 40 42 44 46 47 47 48 51 53 55 56 57 59 60 62 63 64 66 67 69 72 72 70 67 64
17 20 20 21 22 22 22 22 18 17 17 16 30 27 25 31 32 38 41 43 44 45 46 46 47 50 52 54 55 57 59 60 62 63 64 64 67 70 68 65 62 58 56 54
17 18 18 18 20 21 20 21 20 19 16 19 33 30 32 32 36 40 41 43 43 43 43 44 48 51 53 55 57 58 60 60 61 62 63 66 67 64 60 55 52 51 49 46
17 20 18 18 19 19 22 20 22 25 27 28 27 36 34 36 38 40 40 41 40 41 44 48 50 53 55 57 58 60 61 61 60 63 65 63 62 58 53 49 48 43 44 42
16 20 19 19 20 19 20 22 23 25 28 30 21 37 29 38 39 39 39 39 42 43 46 50 53 55 56 57 60 60 59 61 63 63 62 61 57 54 51 45 41 39 36 36
20 20 24 22 21 24 24 26 25 28 30 32 33 24 39 38 37 36 38 39 42 46 49 52 55 56 57 58 58 58 61 63 62 61 57 52 51 50 45 39 32 32 33 33
22 23 25 25 24 24 24 26 28 30 32 32 33 37 36 33 35 35 38 41 45 47 50 52 53 54 55 56 58 61 62 61 59 53 46 47 45 36 25 26 27 27 27 28
22 24 25 25 26 25 26 26 28 30 32 30 31 30 39 34 36 39 41 44 47 49 50 52 53 55 57 59 60 60 58 57 50 42 42 38 29 27 23 22 22 22 24 27
23 24 25 26 29 28 28 29 29 30 31 29 28 28 34 38 39 41 43 47 50 53 54 55 56 56 58 60 60 59 55 49 43 40 35 27 23 20 20 22 22 22 24 25
22 23 25 27 27 27 28 28 26 27 27 27 28 32 35 37 39 41 46 51 53 53 54 55 57 59 61 58 57 53 48 45 40 34 25 21 18 19 23 24 25 25 24 23
23 24 26 26 26 26 24 25 24 24 26 28 30 34 36 38 42 45 51 52 52 52 54 57 59 60 57 55 51 49 44 38 32 25 20 19 19 22 26 25 21 25 26 25
24 25 26 24 24 23 20 21 22 24 26 27 31 34 38 42 47 49 52 48 50 53 56 57 56 55 53 49 46 41 35 28 23 19 17 18 19 22 24 23 25 25 24 24
25 25 25 22 23 20 18 19 21 23 26 27 31 36 40 45 48 48 48 49 52 53 51 51 49 49 48 41 34 29 23 19 17 16 16 18 19 21 22 19 15 18 23 24
25 24 22 20 19 18 17 19 21 22 26 26 32 37 41 43 45 47 52 52 51 50 46 41 39 35 30 21 19 17 15 14 15 15 17 19 20 15 14 17 18 18 19 19
23 21 20 19 17 17 16 18 19 20 26 27 34 39 40 41 46 49 50 50 47 41 33 31 28 28 24 17 11 11 12 13 16 18 18 16 16 18 20 19 19 17 15 14
20 18 17 17 18 18 15 17 18 22 27 35 39 40 41 46 47 49 47 45 37 32 30 24 22 21 18 15 12 12 12 18 16 15 17 19 21 21 20 16 13 11 7 9
20 18 16 16 17 17 15 16 20 24 31 37 42 43 43 41 44 48 44 40 33 27 21 17 18 16 15 14 14 16 14 16 18 21 22 21 17 12 11 11 9 7 5 6
19 17 16 16 16 15 15 19 23 29 36 40 43 42 39 38 45 49 43 34 26 18 16 15 15 14 14 17 15 16 19 21 22 20 16 15 14 12 8 6 4 5 3 4
17 16 16 15 14 16 17 22 26 33 38 42 42 39 35 38 45 46 36 27 17 15 13 13 13 15 16 16 20 22 23 19 17 17 15 11 7 4 3 4 5 6 4 6
16 14 15 15 16 17 20 25 31 37 39 40 38 34 34 39 45 40 28 17 12 11 13 11 14 14 18 22 22 17 17 17 15 12 12 10 8 7 3 1 1 3 2 10
15 15 15 15 16 19 23 29 35 39 39 37 32 32 35 39 39 26 16 8 9 11 10 13 14 19 21 16 15 17 18 18 15 14 13 13 10 6 3 4 6 7 7 11
Wind_Direction
266 269 267 264 258 257 259 261 266 268 270 269 271 277 281 282 277 274 272 274 279 284 287 292 298 301 302 301 300 299 298 298 297 297 296 298 298 298 297 294 292 293 293 293
264 261 262 262 261 261 263 264 264 272 272 271 271 277 281 280 275 272 270 273 279 287 296 301 302 301 299 297 297 296 297 299 299 299 300 301 300 299 297 296 295 294 293 290
262 266 264 264 264 264 263 263 270 270 270 276 276 281 273 275 271 271 274 280 288 295 296 297 297 296 296 296 296 298 301 301 302 304 303 301 301 300 299 298 297 295 293 292
267 268 267 264 262 258 266 258 263 266 270 274 277 276 279 270 271 271 277 286 291 293 295 297 298 298 297 298 301 303 304 305 304 302 302 302 301 300 299 298 297 295 293 292
270 266 265 264 261 260 260 267 268 271 275 278 286 276 277 278 275 280 287 291 292 295 298 300 300 300 302 304 305 306 306 304 302 302 301 301 300 300 299 299 298 296 294 292
278 270 267 267 269 267 267 270 275 276 276 282 269 281 288 284 287 290 292 293 297 299 300 300 301 302 304 304 305 305 304 303 303 302 301 301 301 301 301 301 300 298 295 293
288 277 270 268 271 270 274 276 278 278 287 278 278 280 277 290 292 294 296 298 299 300 300 302 302 303 304 304 305 304 303 303 303 302 303 304 304 303 303 302 301 300 297 294
288 289 274 273 271 272 272 272 271 272 272 264 288 288 289 292 294 295 297 298 298 299 301 301 302 304 305 305 303 304 304 303 303 304 305 305 304 303 304 302 301 301 299 297
282 281 279 276 271 267 270 268 272 275 279 281 286 290 292 288 292 294 296 298 301 303 304 304 305 305 305 306 306 304 304 305 306 306 306 305 305 304 304 304 305 302 301 301
279 278 279 277 274 273 275 280 283 287 284 288 290 295 290 299 298 299 301 303 304 304 304 305 306 307 308 306 303 304 305 305 306 306 306 306 306 307 306 304 303 303 303 304
275 276 284 283 282 282 286 285 281 284 287 291 293 286 295 297 300 303 302 304 304 305 307 308 308 307 304 303 304 305 305 306 307 306 306 306 307 306 302 302 302 304 303 300
280 281 282 284 284 282 282 284 286 287 290 289 290 292 293 297 299 300 302 305 306 307 308 305 303 303 302 303 305 306 307 308 309 309 308 309 310 311 310 308 307 307 306 312
283 283 286 289 284 282 285 286 287 287 287 289 290 294 300 302 304 307 307 305 306 307 306 304 303 304 306 307 308 307 308 310 311 311 311 311 312 314 317 315 312 316 322 325
287 287 284 284 283 290 291 290 290 288 288 292 294 294 295 305 307 307 308 308 309 309 307 307 307 308 308 308 308 308 310 310 313 311 311 310 314 319 324 320 320 321 321 325
287 288 286 283 286 287 288 289 289 288 292 296 297 300 300 304 305 309 309 308 308 307 308 308 308 308 308 308 307 308 309 312 311 310 308 308 311 319 322 320 319 316 314 317
285 288 288 288 287 286 288 288 289 292 295 298 301 302 308 307 310 310 307 308 309 309 309 309 308 307 306 306 305 307 311 311 308 309 306 307 317 317 319 317 314 318 318 315
284 287 291 289 285 287 286 286 290 293 296 300 303 307 311 311 309 309 308 310 309 310 310 309 308 306 304 302 303 307 309 307 306 305 310 315 316 316 315 316 316 318 328 331
285 287 289 287 284 283 285 285 289 294 299 307 310 311 309 308 310 310 311 309 309 309 308 309 308 307 305 302 301 304 305 305 308 308 314 314 316 314 313 317 331 327 329 345
285 284 285 285 281 286 282 286 292 299 304 314 308 309 311 313 312 310 312 310 309 309 312 312 315 322 322 308 301 302 308 313 312 319 317 314 315 315 322 326 324 321 320 330
283 280 279 277 278 277 288 286 292 303 303 312 317 319 317 314 312 315 316 314 314 317 317 315 320 324 332 328 319 320 320 318 319 317 312 313 316 323 320 315 311 308 305 316
278 274 270 271 274 278 283 283 295 306 314 327 326 323 319 320 323 324 322 324 326 322 318 324 333 336 337 338 342 335 324 321 324 326 322 319 317 313 310 309 306 307 296 303
271 267 265 270 276 281 284 296 308 314 320 326 326 323 321 320 323 329 330 329 327 322 324 337 339 346 346 345 340 328 331 330 326 323 320 317 316 315 312 302 301 296 281 271
262 264 266 271 277 283 294 304 315 323 325 324 323 323 320 318 326 330 330 330 327 327 339 341 343 345 342 338 342 340 333 328 325 323 324 319 311 310 303 302 295 282 267 208
260 262 269 271 277 289 305 312 319 324 324 323 325 323 318 322 325 327 331 330 327 343 344 348 347 340 343 347 342 336 331 331 327 322 320 333 345 337 329 2 344 310 296 207
264 268 267 275 281 296 307 315 322 321 321 323 324 321 318 320 324 327 329 327 346 349 354 355 343 352 349 346 341 338 334 331 343 4 15 17 17 11 11 45 335 336 288 198
265 264 270 275 286 300 311 319 319 320 322 323 322 321 318 322 324 328 330 348 356 1 357 348 358 354 349 355 352 354 18 28 32 29 27 29 31 26 45 106 78 101 121 138
Height
5867 5867 5867 5867 5868 5867 5867 5867 5865 5864 5865 5864 5863 5863 5863 5862 5860 5860 5859 5857 5855 5852 5850 5847 5844 5840 5836 5832 5828 5823 5819 5815 5810 5806 5801 5797 5792 5787 5782 5776 5772 5766 5761 5757
5864 5862 5862 5862 5862 5862 5863 5862 5861 5860 5860 5860 5859 5859 5858 5857 5856 5854 5853 5851 5848 5845 5841 5838 5834 5830 5826 5822 5817 5813 5808 5804 5799 5793 5788 5782 5776 5771 5765 5760 5756 5751 5745 5740
5859 5857 5857 5858 5858 5858 5858 5858 5856 5856 5855 5854 5853 5853 5853 5852 5850 5848 5846 5843 5841 5838 5834 5830 5826 5822 5816 5811 5806 5802 5797 5791 5785 5778 5772 5766 5759 5753 5747 5743 5737 5732 5726 5720
5853 5852 5852 5853 5853 5854 5852 5852 5851 5850 5850 5850 5848 5849 5844 5846 5844 5842 5840 5837 5834 5830 5826 5821 5816 5810 5805 5800 5796 5791 5785 5778 5771 5764 5758 5751 5744 5737 5731 5725 5720 5715 5709 5704
5847 5847 5847 5847 5847 5847 5846 5846 5845 5844 5844 5843 5841 5841 5836 5839 5837 5835 5833 5830 5825 5821 5816 5811 5804 5799 5794 5788 5783 5777 5772 5765 5757 5751 5744 5737 5730 5722 5715 5707 5702 5696 5689 5684
5843 5843 5842 5842 5842 5842 5841 5841 5840 5839 5839 5839 5836 5836 5836 5831 5830 5827 5824 5820 5815 5811 5805 5799 5794 5788 5783 5777 5771 5766 5758 5751 5744 5737 5729 5722 5714 5707 5700 5691 5682 5675 5668 5662
5838 5837 5837 5837 5836 5836 5836 5836 5836 5838 5837 5837 5828 5830 5830 5825 5823 5817 5813 5809 5805 5800 5795 5790 5784 5778 5772 5767 5761 5753 5745 5738 5730 5722 5714 5706 5698 5690 5682 5674 5666 5658 5652 5647
5835 5834 5833 5832 5832 5831 5831 5831 5831 5829 5831 5830 5820 5823 5820 5818 5814 5810 5805 5800 5796 5791 5786 5781 5774 5769 5762 5755 5748 5740 5732 5724 5717 5708 5701 5693 5684 5675 5668 5660 5653 5646 5639 5634
5831 5829 5828 5827 5826 5826 5824 5825 5824 5822 5821 5821 5820 5814 5814 5810 5805 5801 5797 5792 5786 5781 5776 5769 5763 5757 5750 5742 5733 5725 5718 5710 5702 5695 5687 5678 5670 5661 5654 5647 5641 5634 5628 5623
5827 5825 5824 5823 5822 5821 5820 5820 5819 5817 5816 5814 5815 5807 5805 5799 5795 5792 5787 5782 5777 5772 5765 5759 5752 5745 5737 5729 5719 5712 5705 5697 5690 5682 5672 5664 5655 5647 5640 5634 5629 5623 5618 5613
5822 5821 5818 5818 5818 5816 5816 5814 5814 5812 5810 5806 5805 5804 5793 5791 5787 5783 5778 5774 5769 5761 5755 5748 5740 5732 5724 5715 5707 5700 5693 5684 5676 5667 5658 5650 5643 5635 5629 5624 5619 5614 5610 5605
5816 5815 5814 5813 5811 5810 5809 5808 5806 5803 5801 5799 5795 5792 5787 5784 5780 5775 5770 5765 5758 5752 5745 5738 5730 5721 5712 5704 5697 5687 5678 5670 5662 5653 5646 5639 5631 5624 5619 5615 5611 5607 5603 5599
5810 5808 5807 5805 5805 5804 5802 5801 5799 5796 5792 5792 5788 5785 5775 5774 5770 5765 5761 5754 5748 5742 5735 5726 5717 5708 5699 5690 5682 5674 5665 5657 5649 5643 5636 5630 5625 5620 5614 5610 5607 5603 5598 5593
5803 5802 5801 5801 5797 5796 5794 5793 5791 5787 5785 5783 5781 5778 5771 5765 5761 5756 5751 5743 5737 5729 5720 5712 5704 5695 5686 5677 5669 5660 5653 5646 5640 5633 5627 5623 5619 5615 5611 5607 5603 5598 5594 5590
5797 5796 5794 5792 5790 5789 5787 5784 5783 5780 5777 5776 5773 5768 5764 5759 5754 5748 5741 5733 5726 5718 5709 5700 5691 5682 5673 5664 5656 5649 5642 5636 5630 5625 5621 5617 5614 5610 5607 5603 5599 5595 5591 5588
5790 5789 5787 5784 5782 5781 5779 5776 5775 5773 5770 5768 5764 5760 5757 5751 5744 5738 5730 5722 5714 5705 5697 5688 5678 5668 5660 5652 5644 5638 5632 5627 5622 5618 5615 5612 5609 5606 5603 5599 5596 5591 5587 5583
5783 5782 5780 5778 5775 5774 5774 5770 5769 5766 5764 5762 5758 5754 5748 5741 5734 5728 5719 5712 5703 5695 5686 5676 5665 5656 5646 5639 5633 5629 5624 5620 5616 5613 5610 5607 5604 5601 5598 5595 5591 5586 5582 5577
5776 5774 5773 5773 5770 5769 5768 5766 5764 5761 5758 5756 5752 5747 5740 5732 5724 5717 5709 5701 5693 5684 5674 5664 5654 5644 5634 5627 5624 5620 5617 5614 5611 5609 5606 5602 5599 5596 5593 5590 5587 5583 5579 5575
5769 5768 5766 5766 5765 5765 5762 5760 5759 5757 5753 5752 5745 5739 5732 5724 5715 5706 5699 5689 5680 5671 5662 5653 5643 5634 5625 5619 5616 5614 5612 5610 5607 5605 5601 5597 5594 5592 5589 5586 5584 5582 5578 5575
5763 5762 5762 5760 5760 5759 5758 5755 5753 5751 5748 5744 5738 5730 5723 5715 5707 5697 5687 5677 5668 5659 5652 5645 5638 5630 5622 5617 5614 5611 5609 5607 5603 5600 5596 5593 5591 5588 5585 5582 5580 5579 5576 5574
5756 5755 5755 5754 5754 5753 5752 5750 5748 5746 5744 5734 5727 5720 5712 5703 5694 5685 5675 5666 5658 5650 5645 5639 5633 5627 5622 5617 5613 5610 5607 5603 5599 5596 5593 5589 5586 5583 5580 5578 5576 5575 5574 5572
5750 5750 5750 5749 5748 5748 5746 5744 5743 5738 5732 5725 5717 5710 5703 5695 5687 5678 5669 5660 5653 5646 5640 5635 5630 5626 5621 5617 5612 5608 5604 5600 5596 5592 5588 5584 5581 5578 5576 5574 5572 5571 5571 5570
5744 5745 5745 5745 5743 5741 5740 5738 5734 5730 5724 5717 5709 5701 5694 5687 5679 5670 5662 5655 5648 5643 5638 5634 5630 5625 5621 5615 5610 5606 5602 5597 5592 5588 5584 5581 5578 5575 5573 5572 5570 5569 5569 5568
5738 5739 5739 5739 5738 5736 5734 5731 5727 5722 5715 5708 5700 5693 5686 5680 5672 5665 5657 5651 5645 5641 5637 5634 5629 5624 5619 5614 5610 5604 5599 5593 5589 5585 5581 5577 5574 5572 5570 5568 5567 5566 5567 5568
5734 5734 5734 5734 5733 5731 5729 5725 5720 5714 5707 5699 5692 5686 5680 5674 5667 5659 5653 5648 5644 5641 5638 5634 5628 5623 5619 5614 5608 5602 5597 5592 5587 5583 5579 5576 5573 5570 5568 5567 5566 5565 5565 5565
5728 5728 5729 5728 5728 5726 5722 5718 5713 5706 5699 5692 5686 5680 5674 5668 5662 5656 5651 5648 5645 5642 5638 5633 5628 5624 5619 5614 5609 5602 5597 5592 5587 5583 5580 5576 5573 5570 5568 5567 5567 5566 5565 5566